Weather History for Santa Fe, NM

Change the Weather History Date:

Tuesday, October 9, 2012

  Actual Average Record
Temperature  
Mean Temperature 57 °F -  
Max Temperature 75 °F 80 °F 82 °F (1980)
Min Temperature 39 °F 33 °F 32 °F (1978)
Degree Days  
Heating Degree Days 8    
Growing Degree Days 7 (Base 50)    
Moisture  
Dew Point 20 °F    
Average Humidity 26    
Maximum Humidity 45    
Minimum Humidity 13    
Precipitation  
Precipitation 0.00 in - - ()
Sea Level Pressure  
Sea Level Pressure 29.92 in    
Wind  
Wind Speed 6 mph (West)    
Max Wind Speed 20 mph    
Max Gust Speed 28 mph    
Visibility 10 miles    
Events      
Averages and records for this station are not official NWS values.
T = Trace of Precipitation, MM = Missing Value Source: NWS Daily Summary

Daily Weather History Graph

Daily Weather History Graph

Search for Another Location

Airport:

Trip Planner

Search our weather history database for the weather conditions in past years. The results will help you decide how hot, cold, wet, or windy it might be!

Date:

Astronomy

Oct. 09, 2012 Rise Set
Actual Time 7:06 AM MDT 6:36 PM MDT
Civil Twilight 6:40 AM MDT 7:01 PM MDT
Nautical Twilight 6:11 AM MDT 7:31 PM MDT
Astronomical Twilight 5:41 AM MDT 8:00 PM MDT
Moon 12:57 AM MDT (10/9) 2:54 PM MDT (10/9)
Length of Visible Light 12h 21m
Length of Day
11h 29m
Last Quarter, 36% of the Moon is Illuminated
Oct 9
Last Quarter
Oct 15
New
Oct 21
First Quarter
Oct 29
Full
Nov 6
Last Quarter

Hourly Weather History & Observations

Time (MDT) Temp. Windchill Dew Point Humidity Pressure Visibility Wind Dir Wind Speed Gust Speed Precip Events Conditions
12:53 AM 48.9 °F - 19.0 °F 31% 29.89 in 10.0 mi North 5.8 mph - N/A   Clear
2:53 AM 46.9 °F - 19.9 °F 34% 29.88 in 10.0 mi West 6.9 mph - N/A   Clear
3:53 AM 46.0 °F - 19.9 °F 35% 29.88 in 10.0 mi Calm Calm - N/A   Partly Cloudy
4:53 AM 45.0 °F - 19.9 °F 37% 29.88 in 10.0 mi Calm Calm - N/A   Clear
5:53 AM 39.0 °F 36.8 °F 19.0 °F 45% 29.92 in 10.0 mi NE 3.5 mph - N/A   Clear
6:53 AM 39.9 °F 36.7 °F 19.9 °F 45% 29.96 in 10.0 mi NNE 4.6 mph - N/A   Clear
7:53 AM 44.1 °F 42.5 °F 19.9 °F 38% 29.96 in 10.0 mi North 3.5 mph - N/A   Clear
8:53 AM 52.0 °F - 21.0 °F 30% 29.99 in 10.0 mi Calm Calm - N/A   Clear
9:53 AM 55.0 °F - 21.0 °F 27% 29.98 in 10.0 mi South 4.6 mph - N/A   Clear
10:53 AM 60.1 °F - 21.0 °F 22% 29.97 in 10.0 mi Calm Calm - N/A   Clear
11:53 AM 64.9 °F - 24.1 °F 21% 29.94 in 10.0 mi Variable 5.8 mph - N/A   Clear
12:53 PM 69.1 °F - 25.0 °F 19% 29.91 in 10.0 mi South 5.8 mph - N/A   Clear
1:53 PM 70.0 °F - 25.0 °F 18% 29.89 in 10.0 mi South 5.8 mph - N/A   Clear
2:53 PM 75.0 °F - 21.0 °F 13% 29.84 in 10.0 mi WSW 10.4 mph - N/A   Clear
3:53 PM 73.9 °F - 19.9 °F 13% 29.84 in 10.0 mi West 13.8 mph 20.7 mph N/A   Clear
4:53 PM 72.0 °F - 19.9 °F 14% 29.84 in 10.0 mi WSW 19.6 mph 27.6 mph N/A   Clear
5:53 PM 71.1 °F - 19.0 °F 14% 29.89 in 10.0 mi West 17.3 mph 27.6 mph N/A   Clear
6:53 PM 66.0 °F - 19.0 °F 17% 29.91 in 10.0 mi West 12.7 mph - N/A   Clear
7:53 PM 62.1 °F - 19.0 °F 19% 29.94 in 10.0 mi NW 9.2 mph - N/A   Clear
8:53 PM 61.0 °F - 19.0 °F 20% 29.94 in 10.0 mi South 5.8 mph - N/A   Clear
9:53 PM 55.0 °F - 19.0 °F 24% 29.97 in 10.0 mi East 5.8 mph - N/A   Clear
10:53 PM 48.0 °F - 19.9 °F 33% 29.99 in 10.0 mi North 4.6 mph - N/A   Clear
11:53 PM 48.9 °F - 19.9 °F 32% 29.97 in 10.0 mi NNW 4.6 mph - N/A   Clear